Location: ??????
(30.5519°N, 47.7720°E)
Time: 18:08:23
(UTC+00:00)

Lacrosse 5 - Pass Details

Date: 24 January 2021
Orbit: 715 x 724 km, 57.0° (Epoch: 01 March)

Event Time Altitude Azimuth Distance (km) Brightness Sun altitude
Rises 15:53:55 0° 319° (NW) 3,116 5.6 -20.6°
Reaches altitude 10° 15:56:19 10° 316° (NW) 2,194 4.8 -21.1°
Maximum altitude 16:01:18 63° 236° (SW) 794 2.2 -22.2°
Enters shadow 16:05:41 13° 157° (SSE) 1,970 4.0 -23.1°
